Location: Nelson
(41.2830°S, 173.2830°E)
Time: 08:28:28
(UTC+13:00)

USA 186 - Pass Details

Date: 24 January 2019
Orbit: 262 x 443 km, 96.9° (Epoch: 04 October)

Event Time Altitude Azimuth Distance (km) Brightness Sun altitude
Rises 21:23:55 0° 158° (SSE) 2,256 5.6 -5.5°
Reaches altitude 10° 21:26:07 10° 146° (SE) 1,365 4.3 -5.9°
Maximum altitude 21:28:40 28° 84° (E) 707 2.4 -6.3°
Drops below altitude 10° 21:31:03 10° 22° (NNE) 1,270 3.7 -6.7°
Enters shadow 21:32:28 - 11° (NNE) 1,834 4.6 -6.9°
